{"data":{"norad_id":25118,"epoch":"2026-09-19T18:14:49.284960Z","epoch_age_seconds":75171,"freshness":"FRESH","line1":"1 25118U 97084G   26262.76029265  .00000694  00000+0  22523-3 0  9995","line2":"2 25118  45.0147 317.3603 0002039 260.2191 192.6000 14.47755185508095","mean_motion":14.47755185,"eccentricity":0.0002039,"inclination_deg":45.0147,"raan_deg":317.3603,"arg_perigee_deg":260.2191,"mean_anomaly_deg":192.6,"bstar":0.00022523,"rev_number":50809,"period_min":99.464330359141,"perigee_km":731.53982959509,"apogee_km":734.43974709938,"semimajor_km":7111.1267883472,"source":"CELESTRAK","updated_at":"2026-09-20T09:00:44.908063Z"}}